Wind_Speed
21 21 21 19 17 14 12 9 7 7 6 6 6 6 6 7 7 7 8 9 10 11 11 11 11 12 12 12 12 13 13 12 12 12 12 11 10 10 9 8 7 7 5 4
23 21 20 20 18 16 14 12 9 8 8 7 8 7 7 8 8 7 7 7 8 9 9 9 9 10 10 10 10 11 12 12 12 12 12 11 11 10 10 9 7 7 6 5
23 20 22 22 21 19 17 15 13 11 10 11 11 10 9 9 9 7 7 7 7 8 8 8 8 8 8 8 9 9 10 10 10 10 11 11 11 11 10 10 9 7 6 6
24 22 24 24 23 21 19 17 16 14 14 15 15 14 12 11 10 8 7 9 8 8 8 8 7 7 7 7 7 7 8 8 8 9 9 9 10 10 9 9 8 7 6 6
25 24 24 24 23 22 20 19 20 18 18 18 17 18 15 14 13 10 10 10 10 10 9 8 7 7 7 7 7 7 7 7 6 7 7 8 8 9 9 9 8 7 6 5
24 24 25 24 23 23 21 21 22 22 22 22 19 20 18 16 16 15 13 12 11 11 11 9 8 8 7 7 7 6 6 6 6 6 6 7 7 8 9 9 8 7 6 6
26 26 25 24 25 24 24 24 24 24 25 23 21 23 21 18 17 17 16 15 13 13 12 11 10 10 9 8 8 8 7 6 6 6 6 6 7 7 8 9 9 8 7 7
28 28 26 26 26 24 25 26 27 26 25 23 22 23 20 18 18 18 17 16 15 15 12 12 11 10 10 9 9 9 8 7 7 7 6 6 6 7 7 8 9 9 8 8
28 27 27 27 26 25 26 27 26 26 26 26 24 23 22 19 19 18 18 18 17 17 14 13 13 12 12 12 12 11 10 9 9 9 8 8 8 7 7 8 8 9 9 9
27 28 27 27 27 27 28 27 27 28 28 29 28 26 24 22 20 19 19 20 19 19 17 15 14 14 13 14 14 13 12 12 11 10 10 10 10 9 9 8 8 9 10 10
28 29 27 28 29 28 29 29 30 30 30 31 31 29 24 23 22 22 21 21 20 19 18 17 17 16 16 16 16 15 15 14 13 12 12 12 12 11 11 10 10 11 11 11
30 29 29 30 29 29 30 31 31 33 32 31 32 31 27 26 25 24 24 22 20 20 21 20 19 18 19 18 17 18 17 16 15 15 15 14 14 14 13 12 12 13 13 13
31 31 31 31 31 32 33 33 34 34 34 34 34 33 31 30 28 26 25 24 24 22 24 23 21 21 22 21 20 19 19 19 19 18 17 16 16 16 15 14 14 15 15 15
33 33 33 34 34 34 35 35 35 35 36 36 36 35 33 33 31 29 27 26 25 24 25 25 25 24 23 24 23 23 22 23 22 20 20 19 19 18 18 17 17 17 17 17
34 35 35 35 35 37 37 37 38 38 38 38 37 37 34 33 33 31 30 29 29 28 28 27 28 27 26 26 26 25 24 24 24 22 21 21 20 20 20 20 20 20 20 20
34 34 35 36 36 38 38 38 38 38 39 39 38 38 36 35 34 33 32 32 31 30 30 29 31 30 28 28 28 27 27 27 26 24 24 24 23 23 23 24 24 24 23 23
34 35 35 36 37 37 38 38 39 39 39 40 41 41 40 38 37 35 35 34 35 33 32 31 31 31 31 31 30 30 28 28 28 28 27 27 27 27 27 27 27 26 27 26
35 35 37 37 36 39 37 36 39 40 39 39 40 41 40 38 37 37 36 35 36 35 34 33 33 33 33 32 32 32 33 32 32 31 30 29 29 30 30 29 29 29 29 29
35 36 37 38 38 38 37 36 36 38 38 38 38 40 41 41 41 40 39 37 36 35 34 34 34 34 34 34 34 34 34 34 34 34 34 33 32 33 33 33 33 33 33 32
33 35 37 37 37 37 36 36 36 37 38 37 37 38 39 40 41 41 40 39 38 36 36 35 35 36 36 36 37 37 37 37 36 36 36 36 36 36 36 35 36 36 36 36
32 34 36 36 37 38 37 37 37 38 38 37 37 37 37 39 41 41 40 40 38 38 38 37 37 38 38 38 38 38 39 40 40 39 39 40 39 39 40 39 39 39 39 39
32 34 35 36 36 37 36 38 38 37 37 39 39 39 39 39 41 41 41 40 39 39 39 39 38 38 39 38 39 39 41 41 41 41 41 41 42 42 43 43 42 41 41 40
31 32 33 34 34 35 35 36 38 38 38 38 39 40 40 40 40 40 40 39 40 40 39 40 39 39 39 39 40 40 40 41 42 42 42 43 43 43 44 44 44 44 44 43
30 31 32 33 34 34 34 35 35 36 37 38 38 38 39 39 40 41 40 39 39 40 40 40 41 40 40 40 40 40 40 41 42 43 44 44 44 45 45 46 46 46 46 45
30 31 32 33 33 34 35 35 35 36 36 35 36 36 37 38 38 39 39 39 39 39 39 41 41 40 40 40 40 40 40 41 42 42 43 44 45 46 46 47 47 46 45 43
29 31 32 33 34 35 34 35 35 35 35 35 36 37 37 38 38 39 38 38 39 39 38 39 39 40 41 41 42 42 41 42 42 43 44 45 45 46 46 46 46 44 43 42
Wind_Direction
217 214 210 211 215 217 219 215 209 214 229 258 272 281 305 318 328 340 354 4 8 15 19 24 29 34 38 40 42 44 46 46 47 48 50 51 50 49 48 51 54 56 60 64
222 216 209 211 215 217 218 220 216 223 228 245 266 270 279 285 295 315 331 347 354 0 4 12 19 24 30 35 40 42 44 44 45 44 45 47 47 47 48 50 49 46 46 53
223 217 213 215 216 221 223 222 221 229 239 247 257 260 261 268 281 288 304 321 329 342 352 358 2 11 17 24 31 35 36 37 38 38 40 41 42 42 44 44 42 42 41 40
222 215 216 218 218 222 224 223 229 235 242 250 255 259 253 260 270 276 286 299 304 320 337 346 347 358 360 5 11 18 23 25 27 30 32 33 34 35 34 33 32 31 29 29
224 217 216 218 221 224 224 228 233 235 241 246 247 257 256 259 260 261 274 281 291 302 318 332 331 335 339 342 349 358 5 7 10 15 20 23 24 24 21 15 15 19 17 18
225 220 220 220 223 226 228 231 234 236 240 242 242 252 254 256 260 261 270 274 281 287 298 311 316 312 318 322 323 331 341 343 348 355 360 6 12 14 13 14 15 11 7 8
226 222 221 221 223 223 227 231 234 235 239 243 243 249 253 257 262 262 267 268 272 278 282 291 299 297 297 307 311 313 318 322 325 331 340 348 356 2 5 8 9 6 7 8
228 223 222 224 225 224 226 230 234 238 242 248 245 248 252 258 261 262 262 260 259 267 271 280 287 285 285 291 300 300 307 307 309 309 316 323 332 339 348 355 358 1 1 356
231 225 222 225 225 227 226 230 235 242 244 248 247 249 252 255 258 260 259 261 257 265 265 270 275 280 282 287 295 294 291 294 296 296 301 304 309 316 326 336 342 346 348 346
235 229 220 222 225 227 230 230 234 238 243 246 249 252 254 254 257 260 260 259 259 261 263 267 276 276 281 287 288 287 286 290 290 290 294 300 303 303 307 314 321 326 329 334
233 232 223 222 224 225 226 228 231 235 240 246 250 252 253 255 256 258 259 259 257 259 261 263 268 273 279 281 281 282 282 284 286 290 293 297 298 299 298 299 304 309 312 316
234 235 229 224 224 227 228 229 230 234 238 244 247 250 248 251 254 258 259 258 257 260 258 262 264 267 272 275 279 276 275 279 285 288 290 293 296 299 295 293 297 300 303 305
234 236 235 228 225 226 227 228 231 234 238 242 245 249 249 251 253 254 259 259 257 261 262 266 264 268 271 273 274 274 274 277 279 282 286 288 291 294 293 292 294 295 297 298
234 237 237 232 229 228 228 228 230 233 237 241 244 247 248 249 252 253 257 261 263 262 263 264 266 270 271 272 273 273 273 275 276 276 279 282 285 287 287 286 288 290 292 293
238 240 239 237 234 232 230 231 232 234 237 241 245 247 247 248 250 252 255 259 262 262 263 263 264 267 269 269 269 269 271 273 271 271 274 277 279 281 282 282 284 287 289 290
240 243 242 239 237 236 235 233 234 235 236 240 244 245 245 246 249 251 253 258 262 261 261 264 267 265 266 267 268 267 268 269 268 268 270 272 274 276 278 280 282 285 287 288
241 242 242 241 239 240 239 237 237 237 240 242 244 246 246 246 249 252 254 256 258 258 260 264 268 267 267 268 269 269 270 267 267 267 268 270 273 274 275 277 280 282 283 283
243 244 244 244 242 240 240 239 239 238 239 240 243 244 245 246 249 252 255 257 258 258 260 262 266 268 269 270 269 269 269 269 268 268 269 270 272 274 274 274 275 277 279 279
244 244 245 244 243 242 239 239 241 240 240 241 243 243 244 246 250 252 254 257 257 255 258 262 267 269 269 270 270 270 269 269 270 271 270 270 272 272 273 274 275 277 277 277
243 243 244 245 244 241 239 238 241 243 243 243 244 244 246 248 251 253 254 256 257 258 261 262 264 266 267 267 268 269 269 267 268 270 271 272 272 271 271 272 274 275 275 276
243 242 243 244 244 243 240 238 242 245 245 246 245 245 248 250 252 256 258 259 259 260 262 262 264 266 267 266 267 267 267 267 267 268 269 270 271 273 274 274 274 274 275 276
245 244 242 243 245 245 243 241 243 246 246 245 245 246 248 251 254 258 260 261 262 265 265 266 266 267 268 267 267 268 268 268 267 269 270 271 271 272 274 275 276 276 276 276
245 245 245 245 246 247 246 245 246 246 246 247 247 247 250 253 255 258 259 261 263 266 267 268 268 268 268 268 268 268 268 268 268 268 269 270 271 272 273 274 274 274 275 276
243 245 247 246 247 248 248 249 247 246 248 248 249 250 253 255 258 260 261 263 264 266 267 268 269 270 268 268 268 267 267 267 267 268 268 269 270 271 272 273 273 273 273 273
245 247 247 248 249 249 250 249 248 248 249 252 253 255 256 257 259 261 263 264 265 267 268 268 270 269 268 269 268 267 267 267 269 269 269 269 270 271 271 272 273 274 273 272
246 246 247 249 250 250 250 250 249 251 253 253 254 254 256 258 260 261 263 265 266 267 269 270 270 269 269 271 271 270 270 270 269 269 270 271 271 272 272 272 272 271 273 274
Height
5909 5912 5913 5916 5918 5920 5921 5921 5922 5923 5923 5924 5924 5924 5924 5924 5924 5924 5924 5922 5921 5920 5918 5916 5914 5912 5911 5909 5908 5906 5905 5903 5902 5900 5898 5897 5896 5894 5893 5892 5890 5889 5888 5887
5905 5908 5911 5913 5915 5916 5917 5918 5920 5921 5921 5922 5922 5922 5923 5922 5923 5923 5923 5922 5921 5920 5918 5917 5916 5914 5912 5911 5909 5908 5906 5905 5903 5902 5900 5898 5897 5895 5894 5892 5891 5890 5889 5888
5900 5905 5906 5908 5910 5912 5914 5915 5917 5918 5919 5919 5920 5920 5920 5921 5921 5921 5922 5921 5921 5920 5919 5917 5916 5914 5913 5912 5910 5909 5907 5906 5904 5903 5901 5899 5898 5896 5895 5893 5891 5890 5889 5888
5895 5899 5901 5903 5906 5908 5909 5912 5914 5914 5915 5916 5917 5917 5918 5919 5919 5919 5919 5920 5919 5919 5918 5917 5916 5914 5913 5912 5911 5909 5908 5906 5905 5903 5902 5900 5898 5897 5895 5893 5892 5891 5889 5888
5890 5894 5896 5898 5902 5904 5905 5908 5909 5910 5911 5912 5913 5913 5915 5915 5916 5917 5917 5917 5917 5917 5917 5916 5915 5914 5913 5912 5910 5909 5908 5906 5905 5904 5902 5900 5899 5897 5896 5893 5892 5890 5889 5888
5885 5888 5891 5894 5897 5899 5901 5903 5904 5905 5906 5907 5909 5909 5910 5911 5912 5912 5913 5914 5914 5914 5915 5914 5913 5913 5911 5910 5909 5908 5907 5906 5905 5903 5902 5900 5899 5897 5895 5893 5891 5890 5888 5887
5879 5882 5885 5888 5891 5894 5896 5898 5899 5900 5900 5902 5905 5904 5906 5907 5908 5908 5908 5909 5910 5910 5911 5912 5911 5910 5910 5909 5908 5907 5906 5905 5903 5902 5901 5899 5898 5897 5895 5893 5891 5889 5888 5887
5872 5876 5880 5882 5885 5888 5891 5892 5894 5895 5896 5898 5899 5899 5901 5902 5903 5903 5903 5904 5905 5906 5906 5907 5907 5907 5907 5906 5906 5905 5904 5903 5902 5900 5899 5898 5897 5896 5894 5893 5891 5889 5888 5886
5865 5870 5874 5877 5880 5883 5885 5886 5889 5890 5891 5892 5892 5894 5895 5896 5897 5897 5898 5899 5900 5902 5902 5903 5904 5903 5903 5903 5903 5902 5901 5900 5899 5898 5897 5896 5895 5894 5893 5891 5890 5888 5887 5886
5858 5862 5867 5871 5873 5875 5878 5881 5882 5883 5884 5885 5886 5888 5890 5891 5892 5893 5893 5894 5896 5898 5898 5899 5899 5900 5900 5900 5899 5898 5897 5897 5896 5895 5894 5894 5893 5892 5890 5889 5888 5887 5885 5884
5851 5854 5860 5864 5866 5869 5871 5873 5874 5876 5877 5878 5879 5883 5885 5886 5887 5888 5888 5889 5890 5892 5893 5894 5895 5895 5896 5895 5895 5894 5894 5893 5892 5892 5891 5890 5889 5888 5888 5887 5885 5884 5883 5881
5844 5847 5851 5856 5860 5862 5864 5865 5867 5869 5871 5872 5873 5877 5879 5879 5880 5882 5882 5883 5885 5886 5887 5889 5890 5891 5891 5891 5890 5890 5889 5889 5888 5888 5888 5887 5886 5885 5884 5883 5882 5881 5879 5878
5837 5840 5843 5848 5853 5854 5856 5858 5859 5861 5863 5864 5865 5870 5872 5872 5874 5875 5876 5878 5879 5881 5882 5883 5884 5885 5886 5886 5886 5885 5885 5884 5884 5883 5883 5882 5882 5881 5880 5879 5878 5877 5875 5873
5829 5832 5835 5839 5842 5845 5847 5850 5852 5853 5854 5855 5857 5860 5864 5865 5867 5869 5870 5872 5873 5874 5875 5876 5877 5878 5879 5880 5880 5880 5880 5879 5878 5878 5878 5877 5877 5876 5875 5874 5873 5871 5870 5869
5821 5824 5826 5830 5833 5835 5838 5842 5844 5845 5846 5847 5849 5852 5856 5858 5861 5863 5864 5865 5866 5867 5868 5869 5870 5871 5873 5873 5873 5872 5872 5872 5872 5872 5871 5871 5870 5869 5869 5868 5866 5865 5864 5863
5813 5815 5818 5821 5824 5826 5829 5833 5835 5836 5837 5838 5841 5844 5847 5850 5853 5855 5857 5858 5858 5859 5860 5861 5861 5862 5864 5865 5865 5864 5865 5865 5865 5864 5864 5864 5863 5863 5862 5860 5859 5858 5857 5856
5804 5807 5809 5812 5815 5817 5820 5824 5825 5827 5829 5831 5832 5836 5839 5842 5845 5847 5849 5850 5851 5852 5853 5853 5853 5854 5856 5856 5856 5856 5856 5856 5856 5856 5855 5855 5855 5854 5853 5853 5852 5851 5850 5848
5795 5797 5799 5802 5805 5807 5813 5814 5815 5818 5820 5822 5824 5826 5829 5833 5836 5839 5840 5841 5842 5843 5844 5845 5845 5847 5847 5847 5847 5847 5847 5847 5847 5847 5846 5845 5846 5845 5845 5844 5843 5842 5841 5840
5786 5788 5789 5792 5794 5797 5803 5805 5807 5808 5810 5813 5815 5818 5821 5824 5827 5829 5830 5832 5832 5833 5835 5836 5837 5837 5837 5837 5838 5838 5838 5838 5838 5837 5837 5836 5836 5836 5836 5835 5834 5833 5832 5831
5776 5778 5780 5782 5784 5787 5794 5797 5797 5800 5802 5804 5806 5810 5813 5816 5818 5820 5821 5822 5824 5824 5826 5827 5827 5827 5827 5827 5828 5828 5828 5828 5827 5827 5827 5826 5825 5825 5825 5825 5824 5823 5822 5820
5767 5769 5771 5773 5775 5778 5784 5787 5789 5792 5795 5797 5798 5801 5804 5806 5808 5810 5811 5813 5814 5815 5816 5817 5817 5817 5817 5817 5817 5817 5817 5817 5817 5816 5817 5817 5816 5815 5815 5813 5812 5811 5811 5809
5759 5760 5762 5764 5766 5771 5775 5777 5780 5782 5785 5787 5790 5793 5795 5797 5798 5800 5801 5802 5803 5803 5804 5805 5806 5806 5806 5806 5806 5806 5806 5806 5806 5806 5805 5805 5805 5805 5803 5802 5801 5799 5798 5798
5751 5753 5754 5757 5760 5762 5765 5768 5770 5772 5775 5778 5781 5784 5786 5787 5788 5790 5791 5792 5792 5793 5794 5794 5795 5795 5794 5794 5794 5794 5794 5794 5794 5793 5793 5793 5792 5792 5791 5790 5789 5788 5787 5786
5744 5745 5747 5749 5751 5754 5756 5758 5761 5763 5765 5768 5771 5773 5776 5777 5778 5779 5780 5781 5781 5782 5783 5783 5783 5783 5782 5782 5782 5781 5781 5781 5781 5781 5781 5780 5780 5779 5778 5777 5776 5775 5774 5773
5737 5738 5739 5741 5743 5745 5748 5749 5751 5753 5756 5759 5762 5764 5765 5767 5768 5769 5769 5770 5770 5771 5772 5772 5771 5771 5770 5770 5769 5769 5769 5768 5768 5767 5767 5767 5766 5766 5765 5764 5763 5761 5760 5759
5729 5730 5732 5734 5735 5737 5739 5741 5743 5745 5747 5749 5752 5754 5755 5756 5756 5757 5758 5758 5759 5759 5760 5759 5759 5759 5758 5757 5757 5757 5756 5755 5755 5755 5754 5753 5753 5752 5751 5751 5750 5748 5748 5748